M I D A S
Marine Information and Data Acquisition System
Tripno 1791 of the Zeeleeuw from 2009-09-28 09:58:56 to 2009-09-28 15:36:03
Back to CruiseResearch ActivitiesStationsMapUnderway DataData graphs

EquipmentUnitsComments
TimeDGPSUTC
LatitudeDGPSDM.mWGS84
LongitudeDGPSDM.mWGS84
SpeedMeteo Stationm/sRelative wind speed
DirectionMeteo StationdegRelative wind direction
TemperatureMeteo Stationdeg CelciusAir temperature
PressureMeteo StationPaAtmospheric pressure
HumidityMeteo Station%Relative humidity
Missing or incorrect values are displayed as -999
Metereological data collected by the RV Zeeleeuw from 2009-09-28 09:57:43 to 2009-09-28 15:41:13
Time Latitude Longitude Speed Direction Temperature Pressure Humidity
2009-09-28 09:58 51°13.674 2°55.918 3.5 56 16.7 102590 47
2009-09-28 09:59 51°13.69 2°55.853 6.5 52 16.8 102580 42
2009-09-28 10:00 51°13.7 2°55.792 5.9 52 16.7 102580 42
2009-09-28 10:01 51°13.707 2°55.798 4.1 307 16.6 102580 43
2009-09-28 10:02 51°13.702 2°55.789 4.3 310 16.6 102570 47
2009-09-28 10:03 51°13.706 2°55.793 3.6 301 16.7 102570 47
2009-09-28 10:04 51°13.717 2°55.775 4.6 327 16.7 102560 44
2009-09-28 10:05 51°13.76 2°55.705 4.8 301 16.7 102560 44
2009-09-28 10:06 51°13.836 2°55.632 6.2 303 16.7 102560 44
2009-09-28 10:07 51°13.933 2°55.562 3.6 306 16.7 102560 43
2009-09-28 10:08 51°14.033 2°55.491 5.6 306 16.7 102550 48
2009-09-28 10:09 51°14.135 2°55.414 8.9 303 16.7 102540 43
2009-09-28 10:10 51°14.232 2°55.295 9.7 306 16.6 102530 43
2009-09-28 10:11 51°14.325 2°55.137 8.7 307 16.5 102530 42
2009-09-28 10:12 51°14.423 2°54.977 9.2 301 16.4 102520 43
2009-09-28 10:13 51°14.559 2°54.843 9.6 307 16.3 102510 44
2009-09-28 10:14 51°14.718 2°54.723 9.7 304 16.3 102520 45
2009-09-28 10:15 51°14.883 2°54.597 12.2 308 16.3 102520 46
2009-09-28 10:16 51°15.045 2°54.457 10 305 16.2 102520 46
2009-09-28 10:17 51°15.201 2°54.308 10.3 306 16.2 102530 46
2009-09-28 10:18 51°15.361 2°54.168 10.9 304 16.1 102520 43
2009-09-28 10:19 51°15.521 2°54.027 12.1 307 16.2 102520 46
2009-09-28 10:20 51°15.681 2°53.886 9.7 303 16.2 102520 46
2009-09-28 10:21 51°15.841 2°53.743 10.9 305 16.3 102510 45
2009-09-28 10:22 51°16.001 2°53.601 10.5 302 16.1 102510 43
2009-09-28 10:23 51°16.162 2°53.459 11.4 303 16.2 102510 44
2009-09-28 10:24 51°16.324 2°53.317 11.6 308 16.1 102520 42
2009-09-28 10:25 51°16.485 2°53.175 10.3 301 16.1 102510 46
2009-09-28 10:26 51°16.646 2°53.032 10.2 304 16.1 102510 42
2009-09-28 10:27 51°16.808 2°52.894 11.6 304 16.1 102510 46
2009-09-28 10:28 51°16.97 2°52.754 11.2 306 16 102520 46
2009-09-28 10:29 51°17.14 2°52.635 11.5 305 16.1 102500 43
2009-09-28 10:30 51°17.318 2°52.553 11 308 16.1 102530 41
2009-09-28 10:31 51°17.503 2°52.561 10.8 309 16 102540 46
2009-09-28 10:32 51°17.69 2°52.594 9.5 306 15.9 102540 42
2009-09-28 10:33 51°17.879 2°52.626 8.7 309 16 102530 45
2009-09-28 10:34 51°18.068 2°52.653 9.2 307 16 102520 42
2009-09-28 10:35 51°18.258 2°52.675 9.2 302 15.9 102520 46
2009-09-28 10:36 51°18.447 2°52.694 8 302 15.9 102520 43
2009-09-28 10:37 51°18.637 2°52.713 10.3 303 15.9 102520 43
2009-09-28 10:38 51°18.825 2°52.73 10.2 308 15.9 102520 45
2009-09-28 10:39 51°19.013 2°52.748 8.9 304 15.9 102530 43
2009-09-28 10:40 51°19.203 2°52.767 8.8 307 15.8 102520 42
2009-09-28 10:41 51°19.393 2°52.788 9.9 307 15.9 102530 45
2009-09-28 10:42 51°19.581 2°52.824 8.9 308 15.9 102530 45
2009-09-28 10:43 51°19.767 2°52.888 9.1 307 15.9 102540 44
2009-09-28 10:44 51°19.953 2°52.953 8.7 302 15.9 102540 42
2009-09-28 10:45 51°20.139 2°53.018 11.4 307 16 102530 42
2009-09-28 10:46 51°20.324 2°53.081 9.9 304 15.9 102540 41
2009-09-28 10:47 51°20.51 2°53.142 9.1 303 15.9 102530 41
2009-09-28 10:48 51°20.695 2°53.203 10.3 309 16.1 102530 46
2009-09-28 10:49 51°20.881 2°53.252 10.8 309 16 102520 46
2009-09-28 10:50 51°21.068 2°53.294 8 37 16 102520 46
2009-09-28 10:51 51°21.255 2°53.336 9.8 33 16 102520 45
2009-09-28 10:52 51°21.442 2°53.373 10.5 34 16 102520 46
2009-09-28 10:53 51°21.629 2°53.412 9.9 38 16 102520 43
2009-09-28 10:54 51°21.815 2°53.452 9.4 35 15.9 102520 43
2009-09-28 10:55 51°22.004 2°53.487 9.7 39 15.9 102530 43
2009-09-28 10:56 51°22.189 2°53.528 10 35 16 102530 42
2009-09-28 10:57 51°22.376 2°53.57 9.2 31 15.9 102530 44
2009-09-28 10:58 51°22.563 2°53.613 9.4 34 15.9 102520 42
2009-09-28 10:59 51°22.749 2°53.655 9.6 31 15.9 102520 46
2009-09-28 11:01 51°22.981 2°53.709 9.7 26 16 102510 42
2009-09-28 11:02 51°23.168 2°53.751 8.1 24 15.9 102510 45
2009-09-28 11:03 51°23.356 2°53.797 9.7 25 15.9 102510 46
2009-09-28 11:04 51°23.545 2°53.843 9 26 16 102510 46
2009-09-28 11:05 51°23.733 2°53.887 10.2 28 16 102510 45
2009-09-28 11:06 51°23.922 2°53.909 9.6 29 16 102500 42
2009-09-28 11:07 51°24.113 2°53.91 9.5 22 16 102500 46
2009-09-28 11:08 51°24.303 2°53.913 11 28 16 102500 41
2009-09-28 11:09 51°24.493 2°53.917 8.1 23 16 102500 42
2009-09-28 11:10 51°24.681 2°53.944 8.3 27 15.9 102500 42
2009-09-28 11:11 51°24.871 2°53.977 9.8 22 15.9 102490 44
2009-09-28 11:12 51°25.062 2°54.015 8.9 20 16 102480 46
2009-09-28 11:13 51°25.254 2°54.053 10.2 23 16 102490 43
2009-09-28 11:14 51°25.444 2°54.091 10.4 25 15.9 102500 42
2009-09-28 11:15 51°25.633 2°54.127 10 26 15.9 102500 45
2009-09-28 11:16 51°25.819 2°54.164 9.4 24 16 102500 43
2009-09-28 11:17 51°26.006 2°54.197 9.5 29 15.9 102510 44
2009-09-28 11:18 51°26.192 2°54.231 10.6 22 15.9 102510 44
2009-09-28 11:19 51°26.379 2°54.269 11 19 15.9 102510 42
2009-09-28 11:20 51°26.566 2°54.303 9.5 316 15.9 102500 42
2009-09-28 11:21 51°26.753 2°54.338 9.3 23 15.9 102500 46
2009-09-28 11:22 51°26.94 2°54.379 9.4 21 16 102490 44
2009-09-28 11:23 51°27.128 2°54.42 8.8 23 15.9 102500 45
2009-09-28 11:24 51°27.315 2°54.469 9.4 29 15.9 102500 43
2009-09-28 11:25 51°27.503 2°54.518 9.1 23 15.9 102510 45
2009-09-28 11:26 51°27.69 2°54.566 10.4 24 16 102520 45
2009-09-28 11:27 51°27.879 2°54.613 9.7 26 15.9 102520 43
2009-09-28 11:28 51°28.068 2°54.658 9.2 21 15.9 102520 43
2009-09-28 11:29 51°28.259 2°54.703 9.4 24 16 102520 43
2009-09-28 11:30 51°28.449 2°54.749 9.2 23 16 102530 44
2009-09-28 11:31 51°28.638 2°54.796 10.2 21 16 102520 42
2009-09-28 11:32 51°28.827 2°54.841 8.4 27 16 102520 45
2009-09-28 11:33 51°29.015 2°54.886 8.8 26 16 102520 44
2009-09-28 11:34 51°29.204 2°54.929 9.5 28 16 102520 46
2009-09-28 11:35 51°29.393 2°54.973 9.8 22 16 102510 44
2009-09-28 11:36 51°29.582 2°55.015 10.1 26 16 102520 43
2009-09-28 11:37 51°29.77 2°55.056 8.7 23 15.9 102510 41
2009-09-28 11:38 51°29.959 2°55.101 10.4 21 16 102510 42
2009-09-28 11:39 51°30.148 2°55.144 9.6 26 16 102510 45
2009-09-28 11:40 51°30.339 2°55.186 9.5 20 16 102500 44
2009-09-28 11:41 51°30.529 2°55.227 8 24 16.1 102500 45
2009-09-28 11:42 51°30.721 2°55.272 9.2 25 16.1 102500 41
2009-09-28 11:43 51°30.912 2°55.312 9.4 23 16.1 102490 45
2009-09-28 11:44 51°31.102 2°55.353 9.4 22 16.1 102500 42
2009-09-28 11:45 51°31.293 2°55.392 8.7 23 16.1 102500 42
2009-09-28 11:46 51°31.485 2°55.432 8.1 27 16.1 102500 44
2009-09-28 11:47 51°31.678 2°55.474 9 20 16.2 102500 42
2009-09-28 11:48 51°31.87 2°55.516 9 27 16.2 102490 45
2009-09-28 11:49 51°32.063 2°55.557 7.5 29 16.2 102480 46
2009-09-28 11:50 51°32.254 2°55.603 8.5 26 16.2 102490 44
2009-09-28 11:51 51°32.429 2°55.649 7.4 21 16.2 102480 46
2009-09-28 11:52 51°32.521 2°55.69 6 248 16.2 102490 43
2009-09-28 11:53 51°32.576 2°55.721 5.1 252 16.2 102490 47
2009-09-28 11:54 51°32.613 2°55.742 4.9 248 16.3 102490 43
2009-09-28 11:55 51°32.639 2°55.761 5.2 248 16.4 102490 42
2009-09-28 11:56 51°32.662 2°55.78 5.1 27 16.5 102490 42
2009-09-28 11:57 51°32.695 2°55.764 6.1 325 16.5 102490 47
2009-09-28 11:58 51°32.697 2°55.722 7 347 16.5 102490 45
2009-09-28 11:59 51°32.686 2°55.71 7.5 356 16.4 102480 47
2009-09-28 12:00 51°32.67 2°55.707 6.4 355 16.2 102480 44
2009-09-28 12:01 51°32.651 2°55.703 6.8 353 16 102480 46
2009-09-28 12:02 51°32.633 2°55.694 6.2 350 16 102470 45
2009-09-28 12:03 51°32.614 2°55.679 5.6 285 16 102470 46
2009-09-28 12:04 51°32.602 2°55.66 5.8 342 16 102470 47
2009-09-28 12:05 51°32.597 2°55.636 6.1 277 16.1 102470 47
2009-09-28 12:06 51°32.598 2°55.611 6.1 280 16.1 102460 43
2009-09-28 12:07 51°32.609 2°55.567 7.7 281 16.2 102460 41
2009-09-28 12:08 51°32.601 2°55.378 10.1 336 16.3 102460 46
2009-09-28 12:09 51°32.574 2°55.165 8.5 281 16.4 102460 42
2009-09-28 12:10 51°32.546 2°55.076 7.2 355 16.4 102470 41
2009-09-28 12:11 51°32.518 2°55.048 6.8 4 16.2 102470 46
2009-09-28 12:12 51°32.498 2°55.043 5.3 7 16.1 102470 46
2009-09-28 12:13 51°32.485 2°55.046 4.1 2 16.1 102470 42
2009-09-28 12:14 51°32.479 2°55.054 5.1 2 16.1 102480 43
2009-09-28 12:15 51°32.476 2°55.065 5.2 4 16.1 102470 47
2009-09-28 12:16 51°32.474 2°55.079 5.2 358 16.2 102470 47
2009-09-28 12:17 51°32.473 2°55.097 5.2 4 16.2 102470 47
2009-09-28 12:18 51°32.473 2°55.118 6.9 7 16.2 102470 42
2009-09-28 12:19 51°32.476 2°55.142 6.4 16 16.2 102480 43
2009-09-28 12:20 51°32.479 2°55.166 6.4 24 16.2 102480 45
2009-09-28 12:21 51°32.483 2°55.188 7.1 32 16.3 102480 43
2009-09-28 12:22 51°32.488 2°55.211 6.9 27 16.3 102480 43
2009-09-28 12:23 51°32.492 2°55.235 6.7 23 16.3 102480 42
2009-09-28 12:24 51°32.496 2°55.259 5.9 26 16.3 102480 42
2009-09-28 12:25 51°32.5 2°55.281 6.4 25 16.4 102470 47
2009-09-28 12:26 51°32.504 2°55.303 5.8 21 16.4 102480 47
2009-09-28 12:27 51°32.507 2°55.325 6.3 25 16.4 102480 42
2009-09-28 12:28 51°32.51 2°55.348 7.8 21 16.4 102480 47
2009-09-28 12:29 51°32.513 2°55.371 6.7 22 16.4 102470 45
2009-09-28 12:30 51°32.517 2°55.395 7.2 25 16.4 102470 42
2009-09-28 12:31 51°32.52 2°55.42 6.5 25 16.4 102460 46
2009-09-28 12:32 51°32.523 2°55.443 6.6 24 16.4 102470 42
2009-09-28 12:33 51°32.517 2°55.463 6.9 8 16.4 102470 47
2009-09-28 12:34 51°32.488 2°55.44 7.4 285 16.3 102460 47
2009-09-28 12:35 51°32.496 2°55.328 8.7 279 16.4 102460 43
2009-09-28 12:36 51°32.592 2°55.127 12.4 283 16.5 102450 43
2009-09-28 12:37 51°32.734 2°54.945 10.3 279 16.5 102450 46
2009-09-28 12:38 51°32.912 2°54.862 9.2 283 16.5 102440 42
2009-09-28 12:39 51°33.102 2°54.861 7.7 281 16.5 102450 43
2009-09-28 12:40 51°33.277 2°54.981 5.2 279 16.5 102450 43
2009-09-28 12:41 51°33.362 2°55.165 2.6 82 16.5 102460 48
2009-09-28 12:42 51°33.359 2°55.269 6.1 77 16.8 102460 46
2009-09-28 12:43 51°33.34 2°55.328 5.7 36 16.7 102460 42
2009-09-28 12:44 51°33.325 2°55.366 6.4 32 16.7 102460 45
2009-09-28 12:45 51°33.315 2°55.399 6.5 36 16.5 102450 46
2009-09-28 12:46 51°33.308 2°55.428 6.3 38 16.5 102460 44
2009-09-28 12:47 51°33.303 2°55.454 7.4 31 16.5 102450 42
2009-09-28 12:48 51°33.3 2°55.478 7.1 27 16.5 102450 47
2009-09-28 12:49 51°33.307 2°55.498 7 31 16.4 102450 47
2009-09-28 12:50 51°33.321 2°55.514 7.9 37 16.4 102470 48
2009-09-28 12:51 51°33.331 2°55.529 7.3 39 16.4 102470 45
2009-09-28 12:52 51°33.338 2°55.548 8 43 16.3 102460 44
2009-09-28 12:53 51°33.342 2°55.57 8.1 38 16.2 102460 47
2009-09-28 12:54 51°33.348 2°55.592 7.5 34 16.2 102460 47
2009-09-28 12:55 51°33.356 2°55.61 7.9 36 16.2 102460 42
2009-09-28 12:56 51°33.365 2°55.629 7.6 39 16.2 102460 46
2009-09-28 12:57 51°33.37 2°55.65 7.6 35 16.2 102460 47
2009-09-28 12:58 51°33.373 2°55.672 7.5 36 16.2 102460 41
2009-09-28 12:59 51°33.373 2°55.695 8.5 33 16.2 102460 42
2009-09-28 13:00 51°33.373 2°55.718 6.9 29 16.2 102460 44
2009-09-28 13:01 51°33.372 2°55.74 8.3 22 16.3 102460 46
2009-09-28 13:02 51°33.371 2°55.765 7.3 23 16.3 102460 45
2009-09-28 13:03 51°33.37 2°55.789 7.3 25 16.2 102460 45
2009-09-28 13:04 51°33.369 2°55.814 8.1 21 16.2 102460 43
2009-09-28 13:05 51°33.369 2°55.84 7.5 24 16.3 102450 46
2009-09-28 13:06 51°33.369 2°55.866 6.7 23 16.3 102460 47
2009-09-28 13:07 51°33.369 2°55.89 8 27 16.4 102460 44
2009-09-28 13:08 51°33.371 2°55.915 8 29 16.3 102450 47
2009-09-28 13:09 51°33.372 2°55.939 8.1 32 16.3 102450 45
2009-09-28 13:10 51°33.374 2°55.963 7.1 30 16.2 102440 42
2009-09-28 13:11 51°33.375 2°55.988 7.4 32 16.2 102430 47
2009-09-28 13:12 51°33.377 2°56.012 6.6 26 16.3 102430 44
2009-09-28 13:13 51°33.376 2°56.036 8.3 29 16.3 102440 44
2009-09-28 13:14 51°33.376 2°56.061 7.1 25 16.3 102430 42
2009-09-28 13:15 51°33.376 2°56.085 6.6 28 16.2 102430 45
2009-09-28 13:16 51°33.375 2°56.108 6.1 25 16.3 102420 41
2009-09-28 13:17 51°33.374 2°56.131 7.1 19 16.3 102430 46
2009-09-28 13:18 51°33.373 2°56.154 7.6 23 16.3 102420 41
2009-09-28 13:19 51°33.373 2°56.178 7.2 20 16.3 102430 42
2009-09-28 13:20 51°33.374 2°56.2 7.6 29 16.4 102430 47
2009-09-28 13:21 51°33.375 2°56.223 6.6 27 16.3 102430 47
2009-09-28 13:22 51°33.363 2°56.254 6.9 36 16.3 102430 42
2009-09-28 13:23 51°33.344 2°56.322 5.4 81 16.3 102440 47
2009-09-28 13:24 51°33.359 2°56.395 6.8 269 16.2 102430 42
2009-09-28 13:25 51°33.379 2°56.437 4.3 284 16.2 102430 46
2009-09-28 13:26 51°33.398 2°56.474 6 31 16.3 102430 45
2009-09-28 13:27 51°33.415 2°56.526 6.5 77 16.3 102430 47
2009-09-28 13:28 51°33.411 2°56.594 7.6 77 16.3 102440 47
2009-09-28 13:29 51°33.395 2°56.652 6.5 40 16.2 102440 43
2009-09-28 13:30 51°33.377 2°56.702 6.2 42 16.2 102440 47
2009-09-28 13:31 51°33.359 2°56.747 6.8 43 16.3 102440 46
2009-09-28 13:32 51°33.34 2°56.789 6.5 38 16.2 102440 43
2009-09-28 13:33 51°33.321 2°56.829 6.3 43 16.2 102440 42
2009-09-28 13:34 51°33.307 2°56.88 3.8 76 16.2 102430 41
2009-09-28 13:35 51°33.311 2°56.95 5.3 28 16.4 102420 41
2009-09-28 13:36 51°33.358 2°56.979 7.9 286 16.5 102410 47
2009-09-28 13:37 51°33.384 2°56.913 8.7 331 16.4 102400 45
2009-09-28 13:38 51°33.371 2°56.727 10.4 280 16.4 102390 46
2009-09-28 13:39 51°33.379 2°56.458 10.5 283 16.5 102390 43
2009-09-28 13:40 51°33.389 2°56.165 11.2 331 16.4 102380 44
2009-09-28 13:41 51°33.398 2°55.87 11.9 284 16.4 102380 44
2009-09-28 13:42 51°33.407 2°55.575 12.7 329 16.5 102390 43
2009-09-28 13:43 51°33.407 2°55.281 12.6 284 16.5 102380 44
2009-09-28 13:44 51°33.374 2°54.994 11.8 280 16.4 102370 46
2009-09-28 13:45 51°33.245 2°54.807 9.3 353 16.5 102380 43
2009-09-28 13:46 51°33.061 2°54.77 8.3 1 16.3 102370 46
2009-09-28 13:47 51°32.871 2°54.788 9.2 1 16.3 102370 44
2009-09-28 13:48 51°32.682 2°54.79 9.8 357 16.3 102370 45
2009-09-28 13:49 51°32.493 2°54.774 10.7 358 16.3 102360 46
2009-09-28 13:50 51°32.299 2°54.756 9.5 358 16.2 102360 44
2009-09-28 13:51 51°32.112 2°54.733 9.8 359 16.3 102360 41
2009-09-28 13:52 51°31.926 2°54.668 10.2 355 16.3 102360 43
2009-09-28 13:53 51°31.741 2°54.596 10.8 352 16.3 102350 42
2009-09-28 13:54 51°31.557 2°54.525 10.9 352 16.3 102340 44
2009-09-28 13:55 51°31.373 2°54.455 10.5 357 16.3 102330 45
2009-09-28 13:56 51°31.188 2°54.385 11.6 355 16.3 102340 44
2009-09-28 13:57 51°31.003 2°54.311 11.7 355 16.3 102340 42
2009-09-28 13:58 51°30.818 2°54.24 10.9 357 16.3 102330 45
2009-09-28 13:59 51°30.632 2°54.165 11.3 355 16.3 102340 43
2009-09-28 14:00 51°30.446 2°54.093 11.8 355 16.4 102340 44
2009-09-28 14:01 51°30.26 2°54.019 10.3 354 16.3 102340 43
2009-09-28 14:02 51°30.073 2°53.941 11 354 16.4 102330 45
2009-09-28 14:03 51°29.883 2°53.869 11.3 353 16.3 102330 42
2009-09-28 14:04 51°29.693 2°53.797 9.3 350 16.3 102340 43
2009-09-28 14:05 51°29.503 2°53.736 11.3 354 16.4 102330 43
2009-09-28 14:06 51°29.31 2°53.691 9.8 355 16.3 102340 42
2009-09-28 14:07 51°29.117 2°53.645 9.8 354 16.3 102330 43
2009-09-28 14:08 51°28.925 2°53.598 10.4 354 16.4 102330 42
2009-09-28 14:09 51°28.732 2°53.549 10.4 353 16.4 102330 44
2009-09-28 14:10 51°28.538 2°53.501 11 356 16.4 102340 45
2009-09-28 14:11 51°28.345 2°53.452 9.7 358 16.4 102340 45
2009-09-28 14:12 51°28.152 2°53.402 10.7 354 16.4 102330 45
2009-09-28 14:13 51°27.959 2°53.354 11.1 355 16.4 102340 45
2009-09-28 14:14 51°27.768 2°53.305 11.6 357 16.4 102340 42
2009-09-28 14:15 51°27.576 2°53.255 11.1 355 16.3 102340 42
2009-09-28 14:16 51°27.387 2°53.179 12.4 352 16.4 102340 42
2009-09-28 14:17 51°27.202 2°53.079 11.7 353 16.4 102340 44
2009-09-28 14:18 51°27.015 2°52.983 10.5 352 16.4 102330 44
2009-09-28 14:19 51°26.83 2°52.888 11.2 354 16.3 102340 44
2009-09-28 14:20 51°26.639 2°52.83 9.4 2 16.3 102340 45
2009-09-28 14:21 51°26.444 2°52.829 10 1 16.4 102350 41
2009-09-28 14:22 51°26.248 2°52.832 11 359 16.4 102340 44
2009-09-28 14:23 51°26.051 2°52.839 9.9 359 16.4 102340 44
2009-09-28 14:24 51°25.857 2°52.878 10.1 -999 16.4 102330 44
2009-09-28 14:25 51°25.663 2°52.917 9.3 359 16.4 102330 45
2009-09-28 14:26 51°25.471 2°52.96 9 358 16.4 102340 45
2009-09-28 14:27 51°25.278 2°53.006 7.5 3 16.3 102340 43
2009-09-28 14:28 51°25.086 2°53.043 8.6 3 16.4 102340 42
2009-09-28 14:29 51°24.892 2°53.074 8.4 5 16.3 102340 43
2009-09-28 14:30 51°24.701 2°53.128 6.2 5 16.4 102350 42
2009-09-28 14:31 51°24.516 2°53.224 7.7 6 16.4 102350 44
2009-09-28 14:32 51°24.333 2°53.328 7.9 8 16.4 102350 44
2009-09-28 14:33 51°24.147 2°53.423 7.4 2 16.4 102350 41
2009-09-28 14:34 51°23.959 2°53.525 8.1 6 16.4 102360 43
2009-09-28 14:35 51°23.783 2°53.64 8.2 9 16.4 102350 41
2009-09-28 14:36 51°23.602 2°53.757 5.8 8 16.4 102360 46
2009-09-28 14:37 51°23.422 2°53.878 7.6 8 16.4 102360 41
2009-09-28 14:38 51°23.242 2°53.994 5.5 1 16.4 102360 43
2009-09-28 14:39 51°23.05 2°54.033 9.2 4 16.4 102350 44
2009-09-28 14:40 51°22.856 2°54.027 9.1 358 16.4 102340 42
2009-09-28 14:41 51°22.662 2°54.009 10.7 360 16.4 102330 42
2009-09-28 14:42 51°22.469 2°53.978 9.8 359 16.3 102340 41
2009-09-28 14:43 51°22.275 2°53.935 10.5 359 16.4 102340 44
2009-09-28 14:44 51°22.08 2°53.893 10.5 -999 16.4 102340 45
2009-09-28 14:45 51°21.887 2°53.842 11.3 359 16.4 102330 41
2009-09-28 14:46 51°21.695 2°53.777 11.7 358 16.4 102330 42
2009-09-28 14:47 51°21.503 2°53.713 9.3 1 16.4 102340 42
2009-09-28 14:48 51°21.313 2°53.631 9.5 358 16.4 102330 42
2009-09-28 14:49 51°21.124 2°53.54 11.9 356 16.5 102330 41
2009-09-28 14:50 51°20.934 2°53.457 11.7 356 16.5 102330 44
2009-09-28 14:51 51°20.742 2°53.385 10.5 359 16.5 102330 40
2009-09-28 14:52 51°20.546 2°53.31 9.7 357 16.5 102330 42
2009-09-28 14:53 51°20.356 2°53.238 11.2 356 16.5 102340 43
2009-09-28 14:54 51°20.16 2°53.166 10.2 357 16.5 102340 43
2009-09-28 14:55 51°19.969 2°53.098 9.7 354 16.5 102340 40
2009-09-28 14:56 51°19.775 2°53.027 9.6 359 16.5 102350 44
2009-09-28 14:57 51°19.581 2°52.957 10.6 356 16.5 102340 40
2009-09-28 14:58 51°19.389 2°52.886 9.3 354 16.5 102350 44
2009-09-28 14:59 51°19.192 2°52.815 10.4 357 16.4 102350 42
2009-09-28 15:00 51°19.004 2°52.747 9.9 355 16.5 102340 41
2009-09-28 15:01 51°18.81 2°52.677 10.1 357 16.4 102350 43
2009-09-28 15:02 51°18.621 2°52.608 10.8 358 16.4 102350 42
2009-09-28 15:03 51°18.43 2°52.538 12 359 16.4 102340 41
2009-09-28 15:04 51°18.239 2°52.47 9.8 359 16.4 102350 41
2009-09-28 15:05 51°18.044 2°52.401 10.3 357 16.4 102360 43
2009-09-28 15:06 51°17.856 2°52.333 10.2 359 16.5 102350 41
2009-09-28 15:07 51°17.664 2°52.264 9.3 356 16.4 102360 43
2009-09-28 15:08 51°17.467 2°52.205 10 359 16.4 102350 43
2009-09-28 15:09 51°17.274 2°52.206 8.7 3 16.4 102370 44
2009-09-28 15:10 51°17.075 2°52.235 7.5 6 16.4 102370 41
2009-09-28 15:11 51°16.897 2°52.339 8 11 16.5 102380 42
2009-09-28 15:12 51°16.724 2°52.487 6.3 14 16.6 102380 43
2009-09-28 15:13 51°16.56 2°52.635 6 20 16.6 102390 44
2009-09-28 15:14 51°16.389 2°52.778 6 20 16.6 102390 45
2009-09-28 15:15 51°16.215 2°52.907 7.6 12 16.6 102390 40
2009-09-28 15:16 51°16.04 2°53.033 7.2 18 16.6 102390 44
2009-09-28 15:17 51°15.864 2°53.163 6.9 17 16.5 102380 44
2009-09-28 15:18 51°15.69 2°53.292 6.4 18 16.6 102390 44
2009-09-28 15:19 51°15.527 2°53.46 5.9 22 16.6 102390 40
2009-09-28 15:20 51°15.375 2°53.632 4.8 20 16.6 102390 39
2009-09-28 15:21 51°15.228 2°53.792 4.9 26 16.6 102380 42
2009-09-28 15:22 51°15.081 2°53.958 4.6 23 16.6 102390 43
2009-09-28 15:23 51°14.925 2°54.136 3.5 31 16.6 102390 42
2009-09-28 15:24 51°14.768 2°54.321 3.4 30 16.7 102390 39
2009-09-28 15:25 51°14.629 2°54.523 2.6 35 16.6 102390 38
2009-09-28 15:26 51°14.505 2°54.758 1.9 40 16.7 102390 43
2009-09-28 15:27 51°14.394 2°54.992 2.3 40 16.6 102380 41
2009-09-28 15:28 51°14.279 2°55.224 3.1 35 16.7 102390 37
2009-09-28 15:29 51°14.176 2°55.361 5.2 35 16.6 102390 42
2009-09-28 15:30 51°14.072 2°55.444 2.8 40 16.6 102390 38
2009-09-28 15:31 51°13.981 2°55.512 2 29 16.6 102390 38
2009-09-28 15:32 51°13.917 2°55.561 3.6 75 16.6 102390 43
2009-09-28 15:33 51°13.837 2°55.62 0.1 18 16.6 102390 40
2009-09-28 15:34 51°13.763 2°55.707 1.9 31 16.6 102380 38
2009-09-28 15:35 51°13.71 2°55.806 0.7 280 16.7 102380 37
2009-09-28 15:36 51°13.679 2°55.892 3.3 81 16.7 102380 37
2009-09-28 15:37 51°13.672 2°55.931 3.5 79 16.7 102380 40
2009-09-28 15:38 51°13.669 2°55.943 3.3 82 16.7 102380 42
2009-09-28 15:39 51°13.664 2°55.955 3 81 16.7 102380 39
2009-09-28 15:40 51°13.663 2°55.959 2.5 79 17 102380 38